Regional Weather Roundup
Issued by NWS

Home | Current Version | Previous Version | Graphics & Text | Print | Product List | Glossary On
Versions: 1 2 3 4 5 6 7 8 9 10 11 12 13 14 15 16 17 18 19 20 21 22 23 24 25 26 27 28 29 30 31 32 33 34 35 36 37 38 39 40 41 42 43 44 45 46 47 48 49 50
000
ASUS43 KDMX 191406
RWRIA

WEATHER ROUNDUP FOR IOWA
NATIONAL WEATHER SERVICE DES MOINES IA
800 AM CST SUN NOV 19 2017

NOTE: "FAIR" INDICATES FEW OR NO CLOUDS BELOW 12,000 FEET WITH NO
SIGNIFICANT WEATHER AND/OR OBSTRUCTIONS TO VISIBILITY.

* - THESE STATIONS ARE NOT NWS STATIONS...THUS NOT UNDER NWS
QUALITY CONTROL.  THEY ALSO DO NOT REPORT WEATHER SUCH
AS PRECIPITATION OR FOG.

IAZ001>003-012>014-020>022-031>034-043>046-191500-
   NORTHWEST IOWA

CITY           SKY/WX    TMP DP  RH WIND       PRES   REMARKS
CARROLL *      CLOUDY    23  19  86 W5        30.15F WCI  17
CHEROKEE *     CLOUDY    20  19  94 SW3       30.13S
DENISON *      CLEAR     21  19  93 CALM      30.18S
LE MARS *      CLOUDY    21  19  93 S8        30.13S WCI  12
ORANGE CITY *  CLOUDY    21  19  93 CALM      30.11S
SHELDON *      CLOUDY    18  16  93 SW3       30.09S
SIOUX CITY     CLOUDY    18  15  88 SE7       30.15F WCI   9
SPENCER        PTCLDY    19  15  84 SW5       30.11S WCI  12
STORM LAKE *   CLOUDY    19  18  93 SW8       30.11F WCI   9
$$

IAZ055>058-069>071-079>083-090>094-191500-
   SOUTHWEST IOWA

CITY           SKY/WX    TMP DP  RH WIND       PRES   REMARKS
ATLANTIC *     CLEAR     21  19  93 S5        30.20R WCI  15
AUDUBON *      CLEAR     23  19  86 SW5       30.17S WCI  17
CLARINDA *     CLEAR     23  23 100 CALM      30.25R
COUNCIL BLFS * CLEAR     27  27 100 SW7       30.19F WCI  19
CRESTON *      CLEAR     23  19  86 W10       30.21R WCI  12
HARLAN  *      CLEAR     21  21 100 S8        30.22S WCI  12
LAMONI         CLEAR     24  19  81 W7        30.21R WCI  16
RED OAK *      CLEAR     23  21  93 CALM      30.23R
SHENANDOAH *   CLEAR     25  21  86 SW3       30.24S
$$

IAZ047>049-059>061-072>074-084-191500-
   CENTRAL IOWA

CITY           SKY/WX    TMP DP  RH WIND       PRES   REMARKS
AMES           CLEAR     22  19  89 W8        30.17R WCI  12
ANKENY *       CLEAR     23  18  80 W3        30.20S
BOONE *        CLOUDY    23  18  80 W7        30.15S WCI  15
CHARITON *     CLEAR     23  18  80 W6        30.20R WCI  16
DES MOINES     PTCLDY    24  17  74 SW3       30.19R
GRINNELL*      CLEAR     22  16  76 W10       30.18R WCI  11
KNOXVILLE *    CLEAR     23  16  74 W8        30.19R WCI  14
MARSHALLTOWN   CLEAR     22  15  75 W9        30.16R WCI  12
NEWTON *       CLEAR     23  16  74 W7        30.18R WCI  15
PELLA *        CLEAR     25  15  67 NW9       30.21R WCI  15
PERRY *          N/A     22  20  90 W5        30.18S WCI  16
$$

IAZ004>006-015-016-023>025-035-036-191500-
   NORTH CENTRAL IOWA

CITY           SKY/WX    TMP DP  RH WIND       PRES   REMARKS
ALGONA *       PTCLDY    21  19  93 W8        30.11S WCI  12
CLARION *      CLOUDY    19  19 100 W6        30.13F WCI  11
ESTHERVILLE    CLOUDY    19  16  88 SW5       30.10S WCI  12
FORT DODGE *   CLOUDY    20  17  88 CALM      30.15S
MASON CITY     CLEAR     19  14  81 W7        30.12S WCI  10
FOREST CITY *    N/A     19  16  86 CALM      30.11S
WEBSTER CITY * CLOUDY    21  18  86 SW8       30.13S WCI  12
IOWA FALLS *     N/A     21  17  83 W6        30.16R WCI  13
$$

IAZ007>011-017>019-026>030-037>042-050>054-066-191500-
   NORTHEAST IOWA

CITY           SKY/WX    TMP DP  RH WIND       PRES   REMARKS
CEDAR RAPIDS   CLEAR     20  14  77 NW12      30.12R WCI   8
CHARLES CITY * CLEAR     18  14  86 W10       30.11R WCI   6
CLINTON *      CLEAR     22  17  81 W14       30.10R WCI   9
DECORAH *      CLEAR     18  12  79 VRB5G13   30.07R WCI  11
DUBUQUE        CLEAR     21  13  71 NW14      30.07R WCI   8
MONTICELLO *   CLEAR     21  14  73 NW13      30.10S WCI   9
OELWEIN *      CLEAR     19  16  86 W13       30.12R WCI   7
WATERLOO       CLEAR     20  11  68 W9        30.14R WCI   9
$$

IAZ064-065-067-068-078-191500-
   EAST CENTRAL IOWA

CITY           SKY/WX    TMP DP  RH WIND       PRES   REMARKS
DAVENPORT      CLEAR     22  15  75 NW13G18   30.13R WCI  10
IOWA CITY      CLEAR     24  13  62 NW9       30.16R WCI  14
MT. PLEASANT * CLEAR     24  14  65 W9        30.17R WCI  14
MUSCATINE *    CLEAR     25  14  63 NW9       30.16R WCI  15
QUAD CITIES    CLEAR     25  13  60 NW13      30.12R WCI  14
$$

IAZ062-063-075>077-085>089-095>099-191500-
   SOUTHEAST IOWA

CITY           SKY/WX    TMP DP  RH WIND       PRES   REMARKS
BURLINGTON     CLEAR     24  15  68 NW10      30.15R WCI  14
FAIRFIELD *    CLEAR     23  14  68 W9        30.17R WCI  13
FORT MADISON * CLEAR     25  16  68 NW10      30.17R WCI  15
KEOKUK *       CLEAR     27  16  63 W10       30.17R WCI  17
OSKALOOSA *      N/A     23  18  80 NW10      30.19R WCI  13
OTTUMWA        CLEAR     25  15  66 NW13      30.18R WCI  14
WASHINGTON *   CLEAR     23  18  80 W12       30.17R WCI  12
$$

ABBREVIATIONS USED IN REMARKS
   TC - TEMPERATURES IN CELSIUS
  WCI - WIND CHILL INDEX
   HX - HEAT INDEX
  VSB - VISIBILITY
$$




USA.gov is the U.S. government's official web portal to all federal, state and local government web resources and services.